User: anonymous   Login
Location: Goheenville
(40.9070°N, 79.3720°W)
Time: 15:51:10
(UTC-04:00)
Language:

Cosmos 1633 - Orbit

View from above orbital plane
View from above orbital plane
View from above satellite
View from above satellite

Ground track
Ground track

The orbit data is extracted from the following two-line orbital elements,

1 15592U 85020A   18146.50071224  .00000991  00000-0  33227-4 0  9998
2 15592  82.5366 335.0539 0014505  47.2410 313.0048 15.29530026816754
Epoch (UTC): 26 May 2018 12:01:01
Eccentricity: 0.0014505
inclination: 82.5366°
perigee height: 467 km
apogee height: 487 km
right ascension of ascending node: 335.0539°
argument of perigee: 47.2410°
revolutions per day: 15.29530026
mean anomaly at epoch: 313.0048°
orbit number at epoch: 81675

The dashed part of the orbit path shows where the satellite is in the earth's shadow,  

DLR